TIANMU-1 03

Last updated on Tue Oct 21 2025 00:02:23 GMT+0000 (Coordinated Universal Time)

1 55973U 23039A 25293.59961784 .00022423 00000+0 58609-3 0 9999 2 55973 97.5106 94.8579 0002861 234.9995 125.0982 15.38776287143884
UTC large
Height (km)
Speed (km/s)
/
Latitude / Longitude
Inclination (degrees)
Orbital Period (minutes)
Azimuth
Elevation
Range (km)
Doppler Factor

Next 0 passes for location: London (51.5072 / 0.1276)

Sorry there are no passes over London.